KN4CCE-13 Weather Reports


time (UTC)temp
C
wind
direction
speed
KPH
gust
KPH
rain 1hr
cm
rain 24hr
cm
rain mn
cm
humidity
%
barometer
mb
20260906121508 22 292 0.0 0.0 0.00 0.18 0.00 95 1013.5
20260906120017 22 255 0.0 0.0 0.00 0.18 0.00 95 1013.3
20260906114524 22 216 0.0 0.0 0.00 0.18 0.00 96 1013.2
20260906113024 22 216 0.0 0.0 0.00 0.18 0.00 96 1013.0
20260906111518 22 281 0.0 0.0 0.00 0.18 0.00 96 1012.8
20260906110011 22 281 0.0 0.0 0.00 0.18 0.00 97 1012.6
20260906104518 22 281 0.0 0.0 0.00 0.18 0.00 97 1012.5
20260906103026 22 281 0.0 0.0 0.00 0.18 0.00 97 1012.3
20260906101530 22 281 0.0 0.0 0.00 0.18 0.00 97 1012.3
20260906100012 22 281 0.0 0.0 0.00 0.18 0.00 97 1012.1
20260906094512 22 280 0.0 0.0 0.00 0.18 0.00 97 1011.8
20260906093023 22 215 0.0 0.0 0.00 0.18 0.00 97 1011.5
20260906091516 22 215 0.0 0.0 0.00 0.18 0.00 98 1011.4
20260906090015 22 212 0.0 0.0 0.00 0.18 0.00 98 1011.2
20260906084505 22 275 0.0 0.0 0.00 0.18 0.00 98 1011.1
20260906083018 22 275 0.0 0.0 0.00 0.18 0.00 98 1011.1
20260906081521 22 275 0.0 0.0 0.00 0.18 0.00 98 1011.1
20260906080022 21 275 0.0 0.0 0.00 0.18 0.00 97 1011.0
20260906074506 21 275 0.0 0.0 0.00 0.18 0.00 97 1010.8
20260906073009 22 275 0.0 0.0 0.00 0.18 0.00 97 1010.6
20260906071505 21 275 0.0 0.0 0.00 0.18 0.00 97 1010.6
20260906070029 22 275 0.0 0.0 0.00 0.18 0.00 97 1010.7
20260906064531 22 275 0.0 0.0 0.00 0.18 0.00 97 1010.8
20260906063007 22 275 0.0 0.0 0.00 0.18 0.00 97 1011.0
20260906061514 22 275 0.0 0.0 0.00 0.18 0.00 97 1011.0
20260906060016 22 275 0.0 0.0 0.00 0.18 0.00 97 1011.1
20260906054510 22 275 0.0 0.0 0.00 0.18 0.00 97 1011.3
20260906053032 22 275 0.0 0.0 0.00 0.18 0.00 97 1011.4
20260906051513 22 275 0.0 0.0 0.00 0.18 0.00 97 1011.5
20260906050017 22 275 0.0 0.0 0.00 0.18 0.00 97 1011.6
20260906044523 22 275 0.0 0.0 0.00 0.18 0.00 97 1011.8
20260906043020 23 275 0.0 0.0 0.00 0.18 0.00 96 1011.8
20260906041514 23 275 0.0 0.0 0.00 0.18 0.00 96 1012.0
20260906040025 23 275 0.0 0.0 0.00 0.18 0.00 96 1012.1
20260906034526 23 275 0.0 0.0 0.00 0.18 0.18 96 1012.0
20260906033024 23 275 0.0 0.0 0.00 0.18 0.18 96 1011.9
20260906031535 23 275 0.0 0.0 0.00 0.18 0.18 97 1011.9
20260906030022 23 275 0.0 0.0 0.00 0.18 0.18 97 1011.7
20260906024518 23 275 0.0 0.0 0.00 0.18 0.18 97 1011.6
20260906023023 23 275 0.0 0.0 0.00 0.18 0.18 97 1011.7
20260906021528 23 275 0.0 0.0 0.00 0.18 0.18 97 1011.6
20260906020032 23 275 0.0 0.0 0.00 0.18 0.18 97 1011.7
20260906014530 23 275 0.0 0.0 0.00 0.18 0.18 97 1011.7
20260906013031 23 275 0.0 0.0 0.00 0.18 0.18 97 1011.6
20260906011518 23 275 0.0 0.0 0.00 0.18 0.18 97 1011.5
20260906010031 23 275 0.0 0.0 0.00 0.18 0.18 96 1011.4
20260906004529 23 275 0.0 0.0 0.00 0.18 0.18 96 1011.3
20260906003030 23 275 0.0 0.0 0.00 0.18 0.18 96 1011.3
20260906001505 23 275 0.0 0.0 0.00 0.18 0.18 95 1011.0
20260906000028 23 275 0.0 0.0 0.00 0.18 0.18 95 1010.8
20260905234507 23 275 0.0 0.0 0.00 0.18 0.18 95 1010.8
20260905233008 24 275 0.0 0.0 0.00 0.18 0.18 95 1010.6
20260905231522 24 275 0.0 0.0 0.00 0.18 0.18 95 1010.3
20260905230014 24 275 0.0 0.0 0.00 0.18 0.18 95 1009.9
20260905224508 24 275 0.0 0.0 0.00 0.18 0.18 95 1009.8
20260905223006 24 275 0.0 0.0 0.00 0.18 0.18 95 1009.7
20260905221513 23 275 0.0 0.0 0.00 0.18 0.18 95 1010.4
20260905220021 23 275 0.0 0.0 0.00 0.18 0.18 96 1010.7
20260905214518 23 275 0.0 0.0 0.03 0.18 0.18 95 1010.1
20260905213019 23 275 0.0 0.0 0.03 0.18 0.18 95 1010.1
20260905211509 23 275 0.0 0.0 0.03 0.18 0.18 95 1009.9
20260905210022 23 275 0.0 0.0 0.08 0.18 0.18 94 1009.8
20260905204531 23 275 0.0 0.0 0.15 0.15 0.15 94 1009.4
20260905203028 24 275 0.0 0.0 0.15 0.15 0.15 93 1009.8
20260905201525 24 275 0.0 0.0 0.15 0.15 0.15 90 1009.7
20260905200012 27 275 0.0 0.0 0.10 0.10 0.10 78 1010.0
20260905194512 27 279 0.0 0.0 0.00 0.00 0.00 70 1011.0
20260905193009 29 309 0.0 11.3 0.00 0.00 0.00 66 1010.9
20260905191535 34 295 0.0 0.0 0.00 0.00 0.00 53 1009.8
20260905190030 35 295 0.0 0.0 0.00 0.00 0.00 49 1009.4
20260905184519 35 295 0.0 0.0 0.00 0.00 0.00 50 1009.3
20260905183019 36 295 0.0 0.0 0.00 0.00 0.00 53 1009.5
20260905181520 36 295 0.0 0.0 0.00 0.00 0.00 50 1009.8
20260905180011 35 295 0.0 0.0 0.00 0.00 0.00 49 1010.1
20260905174534 35 295 0.0 0.0 0.00 0.00 0.00 50 1010.7
20260905173014 35 290 0.0 0.0 0.00 0.00 0.00 50 1011.1
20260905171534 35 182 0.0 0.0 0.00 0.00 0.00 50 1011.3
20260905170027 35 199 0.0 0.0 0.00 0.00 0.00 53 1011.6
20260905164518 35 199 0.0 0.0 0.00 0.00 0.00 53 1011.6
20260905163020 34 198 0.0 0.0 0.00 0.00 0.00 57 1011.8
20260905161518 33 198 0.0 0.0 0.00 0.00 0.00 57 1012.0
20260905160024 33 198 0.0 0.0 0.00 0.00 0.00 58 1012.2
20260905154530 33 198 0.0 0.0 0.00 0.00 0.00 59 1012.5
20260905153025 32 197 0.0 0.0 0.00 0.00 0.00 61 1012.7
20260905151526 32 197 0.0 0.0 0.00 0.00 0.00 62 1012.7
20260905150033 32 197 0.0 0.0 0.00 0.00 0.00 65 1012.6
20260905144505 31 197 0.0 0.0 0.00 0.00 0.00 68 1012.8
20260905143006 30 197 0.0 0.0 0.00 0.00 0.00 72 1012.7
20260905141507 30 197 0.0 0.0 0.00 0.00 0.00 72 1012.5
20260905140007 29 195 0.0 0.0 0.00 0.00 0.00 74 1012.5
20260905134525 28 195 0.0 0.0 0.00 0.00 0.00 75 1012.5
20260905133006 28 195 0.0 0.0 0.00 0.00 0.00 79 1012.5
20260905131518 27 195 0.0 0.0 0.00 0.00 0.00 81 1012.5
20260905130011 27 195 0.0 0.0 0.00 0.00 0.00 83 1012.5
20260905124510 26 195 0.0 0.0 0.00 0.00 0.00 85 1012.8
20260905123009 25 194 0.0 0.0 0.00 0.00 0.00 88 1012.8